Change the Weather History Date:

Sunday, May 18, 2014

  Actual Average (KGEV) Record (KGEV)
Temperature  
Mean Temperature 50 °F -  
Max Temperature 64 °F 72 °F 83 °F (1987)
Min Temperature 38 °F 46 °F 27 °F (1973)
Degree Days  
Heating Degree Days 14    
Moisture  
Dew Point 37 °F    
Average Humidity 66    
Maximum Humidity 100    
Minimum Humidity 29    
Precipitation  
Precipitation 0.00 in - - ()
Sea Level Pressure  
Sea Level Pressure 30.25 in    
Wind  
Wind Speed 1 mph (WNW)    
Max Wind Speed 8 mph    
Max Gust Speed -    
Visibility 10 miles    
Events      
Averages and records for this station are not official NWS values.
T = Trace of Precipitation, MM = Missing Value Source: NWS Daily Summary

Daily Weather History Graph

Daily Weather History Graph

Search for Another Location

Airport or City:

Trip Planner

Search our weather history database for the weather conditions in past years. The results will help you decide how hot, cold, wet, or windy it might be!

Date:

Astronomy

May. 18, 2014 Rise Set
Actual Time 6:15 AM EDT 8:28 PM EDT
Civil Twilight 5:46 AM EDT 8:58 PM EDT
Nautical Twilight 5:10 AM EDT 9:34 PM EDT
Astronomical Twilight 4:31 AM EDT 10:13 PM EDT
Moon No Moon Rise 10:01 AM EDT (5/18)
Length of Visible Light 15h 12m
Length of Day
14h 13m
Waning Gibbous, 81% of the Moon is Illuminated
May 18
Waning Gibbous
May 21
Last Quarter
May 28
New
Jun 5
First Quarter
Jun 13
Full

Hourly Weather History & Observations

Time (EDT) Temp. Windchill Dew Point Humidity Pressure Visibility Wind Dir Wind Speed Gust Speed Precip Events Conditions
12:15 AM 46.4 °F - 41.5 °F 83% 30.25 in 10.0 mi Calm Calm - N/A   Overcast
12:35 AM 45.9 °F 44.6 °F 41.2 °F 84% 30.25 in 10.0 mi NW 3.5 mph - N/A   Overcast
12:55 AM 45.7 °F - 42.4 °F 88% 30.26 in 10.0 mi Calm Calm - N/A   Overcast
1:15 AM 45.5 °F - 42.4 °F 89% 30.25 in 10.0 mi Calm Calm - N/A   Overcast
1:35 AM 43.5 °F - 42.4 °F 96% 30.25 in 10.0 mi Calm Calm - N/A   Overcast
1:55 AM 43.2 °F - 43.2 °F 100% 30.25 in 10.0 mi Calm Calm - N/A   Mostly Cloudy
2:15 AM 42.1 °F - 42.1 °F 100% 30.26 in 10.0 mi Calm Calm - N/A   Overcast
2:35 AM 41.7 °F - 41.7 °F 100% 30.26 in 10.0 mi Calm Calm - N/A   Scattered Clouds
2:55 AM 40.8 °F - 40.8 °F 100% 30.25 in 10.0 mi Calm Calm - N/A   Clear
3:15 AM 39.9 °F - 39.9 °F 100% 30.26 in 5.0 mi Calm Calm - N/A   Clear
3:35 AM 39.0 °F - 39.0 °F 100% 30.26 in 7.0 mi Calm Calm - N/A   Scattered Clouds
3:55 AM 39.2 °F - 39.2 °F 100% 30.26 in 10.0 mi Calm Calm - N/A   Clear
4:15 AM 39.9 °F - 39.9 °F 100% 30.26 in 10.0 mi Calm Calm - N/A   Clear
4:35 AM 38.7 °F - 38.7 °F 100% 30.26 in 10.0 mi Calm Calm - N/A   Clear
4:55 AM 38.5 °F - 38.5 °F 100% 30.26 in 7.0 mi Calm Calm - N/A   Clear
5:15 AM 38.7 °F - 38.7 °F 100% 30.26 in 10.0 mi Calm Calm - N/A   Clear
5:35 AM 38.3 °F - 38.3 °F 100% 30.26 in 10.0 mi Calm Calm - N/A   Clear
5:55 AM 38.3 °F - 38.3 °F 100% 30.27 in 10.0 mi Calm Calm - N/A   Clear
6:15 AM 38.3 °F - 38.3 °F 100% 30.27 in 7.0 mi Calm Calm - N/A   Clear
6:35 AM 38.5 °F - 38.5 °F 100% 30.28 in 5.0 mi Calm Calm - N/A   Clear
6:55 AM 38.7 °F - 38.7 °F 100% 30.28 in 10.0 mi Calm Calm - N/A   Clear
7:15 AM 39.2 °F - 39.2 °F 100% 30.28 in 10.0 mi Calm Calm - N/A   Clear
7:35 AM 40.1 °F - 40.1 °F 100% 30.28 in 10.0 mi Calm Calm - N/A   Clear
7:55 AM 41.4 °F - 41.4 °F 100% 30.29 in 10.0 mi Calm Calm - N/A   Clear
8:15 AM 42.8 °F - 42.8 °F 100% 30.29 in 10.0 mi Calm Calm - N/A   Clear
8:35 AM 44.6 °F - 44.2 °F 99% 30.30 in 10.0 mi Calm Calm - N/A   Clear
8:55 AM 46.6 °F - 42.1 °F 84% 30.30 in 10.0 mi Calm Calm - N/A   Clear
9:15 AM 46.6 °F - 39.2 °F 75% 30.29 in 10.0 mi Calm Calm - N/A   Clear
9:35 AM 49.1 °F - 39.9 °F 71% 30.29 in 10.0 mi Calm Calm - N/A   Clear
9:55 AM 49.1 °F - 37.6 °F 64% 30.29 in 10.0 mi Calm Calm - N/A   Clear
10:15 AM 50.5 °F - 37.2 °F 60% 30.29 in 10.0 mi East 4.6 mph - N/A   Clear
10:35 AM 51.6 °F - 37.4 °F 58% 30.29 in 10.0 mi SE 3.5 mph - N/A   Clear
10:55 AM 53.1 °F - 36.3 °F 53% 30.29 in 10.0 mi Calm Calm - N/A   Clear
11:15 AM 53.8 °F - 36.5 °F 52% 30.28 in 10.0 mi ENE 4.6 mph - N/A   Clear
11:35 AM 55.0 °F - 36.7 °F 50% 30.29 in 10.0 mi East 4.6 mph - N/A   Clear
11:55 AM 54.7 °F - 35.8 °F 49% 30.28 in 10.0 mi North 4.6 mph - N/A   Clear
12:15 PM 55.0 °F - 34.9 °F 47% 30.28 in 10.0 mi Calm Calm - N/A   Scattered Clouds
12:35 PM 56.5 °F - 37.4 °F 49% 30.28 in 10.0 mi South 3.5 mph - N/A   Scattered Clouds
12:55 PM 56.7 °F - 34.3 °F 43% 30.27 in 10.0 mi Calm Calm - N/A   Clear
1:15 PM 58.5 °F - 34.5 °F 41% 30.26 in 10.0 mi NNW 3.5 mph - N/A   Clear
1:35 PM 58.6 °F - 32.9 °F 38% 30.25 in 10.0 mi NW 4.6 mph - N/A   Clear
1:55 PM 60.1 °F - 32.5 °F 35% 30.24 in 10.0 mi Calm Calm - N/A   Clear
2:15 PM 61.2 °F - 33.3 °F 35% 30.24 in 10.0 mi West 4.6 mph - N/A   Clear
2:35 PM 61.0 °F - 32.7 °F 35% 30.23 in 10.0 mi West 4.6 mph - N/A   Clear
2:55 PM 61.9 °F - 30.4 °F 31% 30.23 in 10.0 mi SSW 4.6 mph - N/A   Clear
3:15 PM 61.9 °F - 30.9 °F 31% 30.22 in 10.0 mi SSW 4.6 mph - N/A   Clear
3:35 PM 61.7 °F - 31.5 °F 32% 30.22 in 10.0 mi Calm Calm - N/A   Scattered Clouds
3:55 PM 63.5 °F - 33.8 °F 33% 30.21 in 10.0 mi Calm Calm - N/A   Scattered Clouds
4:15 PM 63.9 °F - 34.0 °F 33% 30.21 in 10.0 mi SW 3.5 mph - N/A   Clear
4:35 PM 62.8 °F - 30.2 °F 29% 30.21 in 10.0 mi Calm Calm - N/A   Clear
4:55 PM 63.7 °F - 32.0 °F 31% 30.21 in 10.0 mi WSW 8.1 mph - N/A   Scattered Clouds
5:15 PM 63.0 °F - 31.3 °F 30% 30.21 in 10.0 mi NW 6.9 mph - N/A   Clear
5:35 PM 62.6 °F - 30.0 °F 29% 30.21 in 10.0 mi Calm Calm - N/A   Clear
5:55 PM 62.8 °F - 30.6 °F 30% 30.21 in 10.0 mi NW 8.1 mph - N/A   Clear
6:15 PM 62.4 °F - 31.3 °F 31% 30.21 in 10.0 mi West 5.8 mph - N/A   Clear
6:35 PM 62.6 °F - 32.0 °F 32% 30.21 in 10.0 mi West 5.8 mph - N/A   Clear
6:55 PM 61.7 °F - 30.7 °F 31% 30.21 in 10.0 mi WNW 6.9 mph - N/A   Clear
7:15 PM 61.0 °F - 30.4 °F 32% 30.21 in 10.0 mi WNW 6.9 mph - N/A   Clear
7:35 PM 60.1 °F - 31.1 °F 33% 30.22 in 10.0 mi WNW 5.8 mph - N/A   Clear
7:55 PM 59.0 °F - 30.6 °F 34% 30.22 in 10.0 mi WNW 3.5 mph - N/A   Clear
8:15 PM 57.6 °F - 30.9 °F 36% 30.23 in 10.0 mi West 3.5 mph - N/A   Clear
8:35 PM 55.4 °F - 32.5 °F 42% 30.23 in 10.0 mi Calm Calm - N/A   Mostly Cloudy
8:55 PM 52.5 °F - 35.4 °F 52% 30.24 in 10.0 mi Calm Calm - N/A   Overcast
9:15 PM 51.6 °F - 36.3 °F 56% 30.24 in 10.0 mi Calm Calm - N/A   Scattered Clouds
9:35 PM 50.9 °F - 37.4 °F 60% 30.25 in 10.0 mi Calm Calm - N/A   Mostly Cloudy
9:55 PM 49.3 °F - 38.3 °F 66% 30.26 in 10.0 mi Calm Calm - N/A   Mostly Cloudy
10:15 PM 48.9 °F - 38.1 °F 66% 30.27 in 10.0 mi Calm Calm - N/A   Scattered Clouds
10:35 PM 47.5 °F - 39.2 °F 73% 30.27 in 10.0 mi Calm Calm - N/A   Clear
10:55 PM 46.4 °F - 38.8 °F 75% 30.27 in 10.0 mi Calm Calm - N/A   Clear
11:15 PM 44.6 °F - 39.4 °F 82% 30.27 in 10.0 mi Calm Calm - N/A   Clear
11:35 PM 44.1 °F - 39.4 °F 84% 30.27 in 10.0 mi Calm Calm - N/A   Clear
11:55 PM 43.0 °F - 38.8 °F 85% 30.28 in 10.0 mi Calm Calm - N/A   Clear